Torna al catalogo

COSMOS 970 DEB

AttivoLEO
NORAD 10579·DEBRIS·🇷🇺 Russia

Lanciato Dec 21, 1977 da Baikonur Cosmodrome

Loading…

Prossimi Passaggi (prossime 24 ore)

TLE

AggiornatoSource: Space-Track

Epoca: Sep 14, 2026, 11:53 UTC

1 10579U 77121W   26257.49565203  .00000035  00000-0  21873-3 0  9998
2 10579  65.6448 274.7141 0047067  82.2713  69.2798 13.33358169368370

Traccia COSMOS 970 DEB in tempo reale con AllMySat

Download on the App Store